Location: Cactus School
(34.5700°N, 118.0931°W)
Time: 09:43:21
(UTC-07:00)

Vanguard 1 Rocket - Pass Details

Date: 17 April 2024
Orbit: 650 x 4220 km, 34.3° (Epoch: 22 May)

Event Time Altitude Azimuth Distance (km) Brightness Sun altitude
Rises 19:51:12 0° 248° (WSW) 3,071 11.0 -5.7°
Reaches altitude 10° 19:53:11 10° 245° (WSW) 2,281 10.2 -6.1°
Maximum altitude 19:58:15 69° 162° (SSE) 1,062 7.6 -7.1°
Drops below altitude 10° 20:06:59 10° 81° (E) 3,844 10.1 -8.8°
Enters shadow 20:09:34 - 80° (E) 4,777 10.5 -9.3°
